TimeCDT,TemperatureF,Dew PointF,Humidity,Sea Level PressureIn,VisibilityMPH,Wind Direction,Wind SpeedMPH,Gust SpeedMPH,PrecipitationIn,Events,Conditions,WindDirDegrees,DateUTC
12:53 AM,73.0,63.0,71,29.73,10.0,South,16.1,-,N/A,,Clear,180,2012-10-22 05:53:00
1:53 AM,73.9,63.0,68,29.73,10.0,South,17.3,-,N/A,,Clear,190,2012-10-22 06:53:00
2:53 AM,73.0,63.0,71,29.74,10.0,South,16.1,-,N/A,,Clear,180,2012-10-22 07:53:00
3:53 AM,70.0,63.0,78,29.75,9.0,South,12.7,-,N/A,,Clear,180,2012-10-22 08:53:00
4:53 AM,73.0,64.0,73,29.75,9.0,South,19.6,-,N/A,,Clear,190,2012-10-22 09:53:00
5:53 AM,73.0,64.0,73,29.76,10.0,South,23.0,28.8,N/A,,Clear,190,2012-10-22 10:53:00
6:53 AM,73.0,64.0,73,29.78,10.0,SSW,19.6,-,N/A,,Clear,200,2012-10-22 11:53:00
7:53 AM,72.0,64.0,76,29.80,9.0,South,17.3,-,N/A,,Clear,190,2012-10-22 12:53:00
8:53 AM,73.0,63.0,71,29.82,9.0,SW,18.4,-,N/A,,Scattered Clouds,220,2012-10-22 13:53:00
9:53 AM,70.0,63.0,78,29.87,9.0,SSW,20.7,-,0.00,,Mostly Cloudy,200,2012-10-22 14:53:00
10:53 AM,71.1,57.9,63,29.89,10.0,SW,27.6,35.7,0.00,Rain,Light Rain,220,2012-10-22 15:53:00
11:27 AM,69.8,59.0,68,29.88,9.0,SSE,19.6,-,0.01,Rain,Light Rain,160,2012-10-22 16:27:00
11:53 AM,71.1,61.0,70,29.88,10.0,South,19.6,-,0.01,,Clear,190,2012-10-22 16:53:00
12:53 PM,72.0,59.0,64,29.86,10.0,South,16.1,-,N/A,,Clear,180,2012-10-22 17:53:00
1:53 PM,77.0,55.9,48,29.81,10.0,South,20.7,-,N/A,,Clear,190,2012-10-22 18:53:00
2:53 PM,82.9,55.0,38,29.78,10.0,SSW,25.3,36.8,N/A,,Clear,200,2012-10-22 19:53:00
3:53 PM,82.0,59.0,45,29.77,10.0,South,29.9,35.7,N/A,,Partly Cloudy,180,2012-10-22 20:53:00
4:53 PM,80.1,61.0,52,29.77,10.0,SSW,32.2,40.3,N/A,,Clear,200,2012-10-22 21:53:00
5:53 PM,75.9,62.1,62,29.79,10.0,South,27.6,-,N/A,,Clear,190,2012-10-22 22:53:00
6:53 PM,73.0,63.0,71,29.80,10.0,South,23.0,-,N/A,,Clear,180,2012-10-22 23:53:00
7:53 PM,71.6,64.4,78,29.85,10.0,South,23.0,-,N/A,,Clear,180,2012-10-23 00:53:00
8:53 PM,69.1,63.0,81,29.82,10.0,South,21.9,-,N/A,,Clear,180,2012-10-23 01:53:00
9:53 PM,66.9,63.0,87,29.83,10.0,South,20.7,-,N/A,,Clear,180,2012-10-23 02:53:00
10:53 PM,66.9,63.0,87,29.83,10.0,South,19.6,-,N/A,,Clear,180,2012-10-23 03:53:00
11:53 PM,64.9,62.1,90,29.83,10.0,South,15.0,-,N/A,,Clear,190,2012-10-23 04:53:00